Location: Bühlhof
(48.7849°N, 8.6361°E)
Time: 01:07:52
(UTC+00:00)

IGS 5A - Pass Details

Date: 19 January 2026
Orbit: 551 x 554 km, 97.4° (Epoch: 8 January)

Event Time Altitude Azimuth Distance (km) Brightness Sun altitude
Rises 16:31:59 0° 175° (S) 2,717 7.1 -5.1°
Reaches altitude 10° 16:34:07 10° 179° (S) 1,827 6.3 -5.4°
Maximum altitude 16:38:02 59° 260° (W) 641 4.1 -6.0°
Drops below altitude 10° 16:41:58 10° 340° (NNW) 1,842 6.0 -6.6°
Sets 16:44:08 0° 344° (NNW) 2,741 6.8 -6.9°
